EW0184 Weather Reports


time (UTC)temp
C
wind
direction
speed
KPH
gust
KPH
rain 1hr
cm
rain 24hr
cm
rain mn
cm
humidity
%
barometer
mb
20260506062029 15 117 0.0 0.0 0.00 0.00 0.00 37 1007.0
20260506061524 15 117 0.0 0.0 0.00 0.00 0.00 37 1007.0
20260506061035 15 117 0.0 1.6 0.00 0.00 0.00 37 1006.9
20260506060531 15 120 0.0 1.6 0.00 0.00 0.00 37 1006.9
20260506051030 15 160 0.0 1.6 0.00 0.00 0.00 39 1006.3
20260506050524 15 235 0.0 1.6 0.00 0.00 0.00 39 1006.2
20260506045026 15 173 0.0 0.0 0.00 0.00 0.00 37 1006.1
20260506044521 15 173 0.0 0.0 0.00 0.00 0.00 36 1006.1
20260506044031 16 174 0.0 0.0 0.00 0.00 0.00 35 1006.1
20260506043533 16 173 0.0 0.0 0.00 0.00 0.00 35 1006.0
20260506043040 16 173 0.0 0.0 0.00 0.00 0.00 34 1005.9
20260506042530 17 174 0.0 1.6 0.00 0.00 0.00 34 1005.8
20260506042027 17 173 0.0 1.6 0.00 0.00 0.00 33 1005.7
20260506041523 17 195 0.0 0.0 0.00 0.00 0.00 33 1005.7
20260506041032 17 195 0.0 1.6 0.00 0.00 0.00 31 1005.6
20260506040533 18 195 0.0 1.6 0.00 0.00 0.00 30 1005.6
20260506040038 18 211 0.0 3.2 0.00 0.00 0.00 30 1005.6
20260506035531 18 212 0.0 1.6 0.00 0.00 0.00 30 1005.4
20260506035039 18 196 0.0 6.4 0.00 0.00 0.00 30 1005.2
20260506034534 18 217 0.0 6.4 0.00 0.00 0.00 30 1005.1
20260506034027 18 138 0.0 1.6 0.00 0.00 0.00 30 1005.0
20260506033525 18 219 0.0 1.6 0.00 0.00 0.00 30 1004.9
20260506033034 18 217 0.0 1.6 0.00 0.00 0.00 31 1004.9
20260506032529 18 225 0.0 1.6 0.00 0.00 0.00 30 1004.7
20260506032026 18 225 0.0 0.0 0.00 0.00 0.00 31 1004.5
20260506031522 19 250 0.0 1.6 0.00 0.00 0.00 31 1004.5
20260506031032 19 219 0.0 1.6 0.00 0.00 0.00 30 1004.4
20260506030529 19 210 0.0 0.0 0.00 0.00 0.00 30 1004.3
20260506030022 20 210 0.0 1.6 0.00 0.00 0.00 29 1004.2
20260506025532 20 201 0.0 3.2 0.00 0.00 0.00 28 1004.1
20260506025028 20 184 0.0 3.2 0.00 0.00 0.00 26 1004.0
20260506024522 20 242 0.0 3.2 0.00 0.00 0.00 27 1004.0
20260506024033 21 155 0.0 4.8 0.00 0.00 0.00 26 1003.9
20260506023531 21 195 0.0 8.0 0.00 0.00 0.00 26 1003.9
20260506023038 21 203 0.0 4.8 0.00 0.00 0.00 26 1003.8
20260506022535 21 174 0.0 8.0 0.00 0.00 0.00 26 1003.8
20260506022030 21 255 1.6 8.0 0.00 0.00 0.00 26 1003.7
20260506021534 21 218 0.0 6.4 0.00 0.00 0.00 26 1003.7
20260506021026 21 204 0.0 6.4 0.00 0.00 0.00 26 1003.5
20260506020533 21 249 0.0 6.4 0.00 0.00 0.00 26 1003.5
20260506020029 21 212 0.0 3.2 0.00 0.00 0.00 26 1003.4
20260506015528 21 226 0.0 6.4 0.00 0.00 0.00 26 1003.4
20260506015038 21 228 0.0 6.4 0.00 0.00 0.00 25 1003.5
20260506014531 22 264 0.0 6.4 0.00 0.00 0.00 26 1003.4
20260506014026 22 300 0.0 6.4 0.00 0.00 0.00 25 1003.2
20260506013533 22 158 1.6 6.4 0.00 0.00 0.00 26 1003.3
20260506013034 22 287 0.0 6.4 0.00 0.00 0.00 26 1003.2
20260506012524 22 255 0.0 4.8 0.00 0.00 0.00 27 1003.2
20260506012043 22 267 0.0 6.4 0.00 0.00 0.00 27 1003.2
20260506011530 22 297 1.6 9.7 0.00 0.00 0.00 27 1003.1
20260506011022 22 39 1.6 6.4 0.00 0.00 0.00 29 1003.1
20260506010535 22 100 0.0 6.4 0.00 0.00 0.00 31 1003.2
20260506010032 22 33 0.0 6.4 0.00 0.00 0.00 32 1003.2
20260506005525 22 264 0.0 8.0 0.00 0.00 0.00 33 1003.1
20260506005035 22 274 1.6 8.0 0.00 0.00 0.00 32 1003.1
20260506004530 22 242 0.0 3.2 0.00 0.00 0.00 33 1003.1
20260506004035 23 227 0.0 6.4 0.00 0.00 0.00 32 1003.0
20260506003530 23 291 0.0 6.4 0.00 0.00 0.00 32 1003.1
20260506003026 23 228 0.0 4.8 0.00 0.00 0.00 32 1002.9
20260506002535 23 231 0.0 6.4 0.00 0.00 0.00 32 1003.0
20260506002031 23 285 0.0 6.4 0.00 0.00 0.00 29 1003.1
20260506001526 23 238 0.0 3.2 0.00 0.00 0.00 30 1002.9
20260506001022 23 255 0.0 8.0 0.00 0.00 0.00 30 1002.8
20260506000532 23 89 0.0 8.0 0.00 0.00 0.00 30 1002.9
20260506000027 23 356 1.6 4.8 0.00 0.00 0.00 30 1002.8
20260505235539 23 19 0.0 3.2 0.00 0.00 0.00 33 1002.9
20260505235031 23 257 0.0 1.6 0.00 0.00 0.00 32 1002.9
20260505234524 23 242 0.0 3.2 0.00 0.00 0.00 31 1002.9
20260505234037 23 224 0.0 6.4 0.00 0.00 0.00 30 1002.9
20260505233530 23 200 0.0 6.4 0.00 0.00 0.00 31 1003.0
20260505233027 24 269 1.6 6.4 0.00 0.00 0.00 29 1003.0
20260505232535 24 114 0.0 9.7 0.00 0.00 0.00 30 1002.9
20260505232031 24 204 1.6 9.7 0.00 0.00 0.00 29 1003.0
20260505231541 24 270 0.0 9.7 0.00 0.00 0.00 31 1003.0
20260505231023 24 260 1.6 9.7 0.00 0.00 0.00 30 1003.1
20260505230535 23 204 1.6 12.9 0.00 0.00 0.00 30 1003.2
20260505230029 24 232 3.2 12.9 0.00 0.00 0.00 29 1003.2
20260505225523 25 286 4.8 12.9 0.00 0.00 0.00 29 1003.2
20260505225033 25 15 1.6 11.3 0.00 0.00 0.00 30 1003.4
20260505224527 24 226 1.6 11.3 0.00 0.00 0.00 29 1003.3
20260505224022 25 238 1.6 9.7 0.00 0.00 0.00 30 1003.5
20260505223532 25 146 1.6 9.7 0.00 0.00 0.00 29 1003.5
20260505223028 25 205 1.6 8.0 0.00 0.00 0.00 30 1003.4
20260505222537 25 153 1.6 9.7 0.00 0.00 0.00 31 1003.7
20260505222031 25 34 1.6 9.7 0.00 0.00 0.00 30 1003.6
20260505221525 25 252 1.6 11.3 0.00 0.00 0.00 30 1003.7
20260505221036 25 269 3.2 11.3 0.00 0.00 0.00 31 1003.8
20260505220531 25 253 1.6 11.3 0.00 0.00 0.00 32 1003.9
20260505220026 24 160 3.2 17.7 0.00 0.00 0.00 31 1004.0
20260505215523 25 58 1.6 17.7 0.00 0.00 0.00 31 1004.1
20260505215031 25 269 1.6 9.7 0.00 0.00 0.00 32 1004.1
20260505214535 24 260 3.2 11.3 0.00 0.00 0.00 32 1004.1
20260505214021 24 274 3.2 12.9 0.00 0.00 0.00 31 1004.3
20260505213532 24 235 4.8 12.9 0.00 0.00 0.00 30 1004.4
20260505213035 24 260 4.8 16.1 0.00 0.00 0.00 31 1004.6
20260505212538 25 180 6.4 19.3 0.00 0.00 0.00 31 1004.6
20260505212030 25 217 6.4 20.9 0.00 0.00 0.00 33 1004.7
20260505211525 24 259 0.0 12.9 0.00 0.00 0.00 36 1004.7
20260505211032 23 165 3.2 12.9 0.00 0.00 0.00 35 1004.9
20260505210530 23 246 4.8 11.3 0.00 0.00 0.00 35 1005.1
20260505210024 23 286 1.6 17.7 0.00 0.00 0.00 37 1005.0
20260505205536 23 137 4.8 17.7 0.00 0.00 0.00 36 1005.0
20260505205030 23 218 3.2 11.3 0.00 0.00 0.00 37 1005.3
20260505204526 23 288 3.2 11.3 0.00 0.00 0.00 39 1005.5
20260505204036 23 243 3.2 9.7 0.00 0.00 0.00 39 1005.6
20260505203532 22 274 1.6 8.0 0.00 0.00 0.00 39 1005.7
20260505203037 22 190 0.0 9.7 0.00 0.00 0.00 40 1005.9
20260505202534 22 287 1.6 9.7 0.00 0.00 0.00 39 1005.8
20260505202029 21 245 1.6 14.5 0.00 0.00 0.00 40 1006.0
20260505201531 22 118 3.2 11.3 0.00 0.00 0.00 40 1006.2
20260505201035 22 218 1.6 14.5 0.00 0.00 0.00 41 1006.2
20260505200532 22 298 1.6 9.7 0.00 0.00 0.00 42 1006.2
20260505200024 21 229 1.6 14.5 0.00 0.00 0.00 41 1006.2
20260505195535 21 131 4.8 16.1 0.00 0.00 0.00 42 1006.4
20260505195029 21 259 1.6 12.9 0.00 0.00 0.00 43 1006.4
20260505194526 21 77 3.2 14.5 0.00 0.00 0.00 43 1006.6
20260505194036 21 242 3.2 17.7 0.00 0.00 0.00 43 1006.7
20260505193529 21 169 3.2 17.7 0.00 0.00 0.00 42 1006.5
20260505193042 21 238 1.6 19.3 0.00 0.00 0.00 42 1006.7
20260505192534 21 263 3.2 19.3 0.00 0.00 0.00 43 1006.5
20260505192030 20 278 1.6 24.1 0.00 0.00 0.00 45 1006.7
20260505191525 20 313 8.0 24.1 0.00 0.00 0.00 46 1006.8
20260505191035 19 219 4.8 19.3 0.00 0.00 0.00 50 1007.1
20260505190529 19 271 9.7 19.3 0.00 0.00 0.00 47 1006.9
20260505190030 19 259 6.4 14.5 0.00 0.00 0.00 47 1007.1
20260505185522 19 257 6.4 19.3 0.00 0.00 0.00 47 1007.1
20260505185031 20 300 6.4 19.3 0.00 0.00 0.00 46 1007.3
20260505184534 20 304 4.8 17.7 0.00 0.00 0.00 45 1007.4
20260505184027 20 287 8.0 24.1 0.00 0.00 0.00 43 1007.7
20260505183537 20 255 6.4 24.1 0.00 0.00 0.00 42 1007.7
20260505183036 20 70 9.7 22.5 0.00 0.00 0.00 42 1007.7
20260505182536 20 240 1.6 11.3 0.00 0.00 0.00 43 1007.3
20260505182030 20 59 4.8 14.5 0.00 0.00 0.00 42 1007.1
20260505181533 20 246 3.2 20.9 0.00 0.00 0.00 43 1007.0
20260505181026 20 265 4.8 20.9 0.00 0.00 0.00 41 1007.1
20260505180526 20 250 3.2 20.9 0.00 0.00 0.00 41 1007.1
20260505180022 21 49 6.4 20.9 0.00 0.00 0.00 40 1006.9
20260505175533 21 284 3.2 14.5 0.00 0.00 0.00 40 1006.8
20260505175028 21 32 3.2 12.9 0.00 0.00 0.00 39 1006.6
20260505174529 21 255 3.2 11.3 0.00 0.00 0.00 40 1006.9
20260505174032 21 304 1.6 11.3 0.00 0.00 0.00 38 1006.8
20260505173527 21 334 1.6 11.3 0.00 0.00 0.00 36 1006.7
20260505173022 22 239 0.0 12.9 0.00 0.00 0.00 38 1006.7
20260505172531 22 250 3.2 14.5 0.00 0.00 0.00 35 1006.7
20260505172028 22 340 3.2 16.1 0.00 0.00 0.00 38 1006.6
20260505171522 22 174 1.6 12.9 0.00 0.00 0.00 38 1006.5
20260505171032 22 219 0.0 12.9 0.00 0.00 0.00 37 1006.5
20260505170527 22 320 0.0 8.0 0.00 0.00 0.00 37 1006.5
20260505170022 22 255 1.6 14.5 0.00 0.00 0.00 37 1006.5
20260505165533 22 229 3.2 14.5 0.00 0.00 0.00 36 1006.4
20260505165028 22 245 1.6 6.4 0.00 0.00 0.00 37 1006.3
20260505164523 22 139 0.0 8.0 0.00 0.00 0.00 36 1006.3
20260505164033 22 188 0.0 6.4 0.00 0.00 0.00 38 1006.3
20260505163530 22 98 0.0 6.4 0.00 0.00 0.00 38 1006.3
20260505163029 22 287 0.0 4.8 0.00 0.00 0.00 38 1006.5
20260505162534 21 226 0.0 3.2 0.00 0.00 0.00 40 1006.4
20260505162030 21 152 0.0 4.8 0.00 0.00 0.00 40 1006.4
20260505161525 20 265 0.0 4.8 0.00 0.00 0.00 40 1006.5
20260505161034 20 170 0.0 3.2 0.00 0.00 0.00 42 1006.5
20260505160530 20 285 0.0 3.2 0.00 0.00 0.00 42 1006.4
20260505153028 18 252 0.0 4.8 0.00 0.00 0.00 50 1006.6
20260505152535 18 288 0.0 4.8 0.00 0.00 0.00 50 1006.7
20260505152030 18 210 0.0 1.6 0.00 0.00 0.00 52 1006.6
20260505151525 18 229 0.0 1.6 0.00 0.00 0.00 54 1006.7
20260505151023 18 162 0.0 0.0 0.00 0.00 0.00 55 1006.7
20260505150535 18 162 0.0 1.6 0.00 0.00 0.00 54 1006.6
20260505140529 15 121 0.0 0.0 0.00 0.00 0.00 62 1007.1
20260505125029 13 153 0.0 1.6 0.00 0.00 0.00 66 1006.6
20260505124523 13 138 0.0 1.6 0.00 0.00 0.00 66 1006.4
20260505124034 13 138 0.0 0.0 0.00 0.00 0.00 66 1006.3
20260505123529 13 138 0.0 0.0 0.00 0.00 0.00 65 1006.3
20260505123025 13 139 0.0 0.0 0.00 0.00 0.00 64 1006.3
20260505122535 13 138 0.0 1.6 0.00 0.00 0.00 64 1006.3
20260505122029 13 138 0.0 1.6 0.00 0.00 0.00 63 1006.2
20260505121526 13 177 0.0 0.0 0.00 0.00 0.00 64 1006.1
20260505121021 13 177 0.0 0.0 0.00 0.00 0.00 64 1006.1
20260505120530 13 177 0.0 0.0 0.00 0.00 0.00 63 1006.0
20260505120026 13 177 0.0 0.0 0.00 0.00 0.00 63 1006.1
20260505115535 13 178 0.0 1.6 0.00 0.00 0.00 63 1006.1
20260505115029 13 177 0.0 1.6 0.00 0.00 0.00 63 1006.0
20260505114524 13 204 0.0 1.6 0.00 0.00 0.00 63 1006.1
20260505114034 13 210 0.0 0.0 0.00 0.00 0.00 64 1006.1
20260505113530 13 210 0.0 1.6 0.00 0.00 0.00 63 1006.1
20260505113025 13 210 0.0 1.6 0.00 0.00 0.00 63 1006.0
20260505112521 13 138 0.0 0.0 0.00 0.00 0.00 61 1006.0
20260505112031 13 138 0.0 0.0 0.00 0.00 0.00 60 1006.0
20260505111527 13 138 0.0 0.0 0.00 0.00 0.00 58 1005.8
20260505111022 14 138 0.0 0.0 0.00 0.00 0.00 58 1005.8
20260505110532 14 138 0.0 1.6 0.00 0.00 0.00 58 1005.8
20260505102021 12 115 0.0 0.0 0.00 0.00 0.00 63 1006.1
20260505101534 12 114 0.0 0.0 0.00 0.00 0.00 62 1006.0
20260505101025 13 114 0.0 0.0 0.00 0.00 0.00 61 1005.9
20260505100538 13 114 0.0 0.0 0.00 0.00 0.00 61 1005.8
20260505100031 13 114 0.0 0.0 0.00 0.00 0.00 61 1005.9
20260505095525 13 114 0.0 0.0 0.00 0.00 0.00 61 1005.7
20260505095020 13 114 0.0 0.0 0.00 0.00 0.00 62 1005.6
20260505094535 13 115 0.0 0.0 0.00 0.00 0.00 61 1005.7
20260505094027 13 114 0.0 0.0 0.00 0.00 0.00 60 1005.8
20260505093031 13 114 0.0 0.0 0.00 0.00 0.00 59 1005.8
20260505092521 13 114 0.0 0.0 0.00 0.00 0.00 58 1005.6
20260505092039 13 114 0.0 0.0 0.00 0.00 0.00 57 1005.6
20260505091528 13 114 0.0 0.0 0.00 0.00 0.00 57 1005.7
20260505091035 13 114 0.0 1.6 0.00 0.00 0.00 57 1005.6
20260505090529 13 114 0.0 0.0 0.00 0.00 0.00 55 1005.7
20260505090025 14 114 0.0 0.0 0.00 0.00 0.00 55 1005.9
20260505085537 14 114 0.0 0.0 0.00 0.00 0.00 55 1006.2
20260505085033 15 114 0.0 0.0 0.00 0.00 0.00 53 1006.2
20260505084528 15 114 0.0 1.6 0.00 0.00 0.00 51 1006.2
20260505084038 15 114 0.0 1.6 0.00 0.00 0.00 51 1006.1
20260505083532 15 114 0.0 1.6 0.00 0.00 0.00 51 1006.1
20260505083029 15 114 0.0 1.6 0.00 0.00 0.00 50 1006.2
20260505082523 15 114 0.0 1.6 0.00 0.00 0.00 50 1006.3
20260505082033 15 256 0.0 0.0 0.00 0.00 0.00 50 1006.1
20260505081532 16 256 0.0 0.0 0.00 0.00 0.00 50 1006.1
20260505081023 16 256 0.0 0.0 0.00 0.00 0.00 50 1006.3
20260505080533 16 256 0.0 0.0 0.00 0.00 0.00 49 1006.2
20260505080032 16 256 0.0 1.6 0.00 0.00 0.00 48 1006.2
20260505075524 17 250 0.0 1.6 0.00 0.00 0.00 48 1006.3
20260505075032 17 249 0.0 1.6 0.00 0.00 0.00 47 1006.3
20260505074529 17 250 0.0 1.6 0.00 0.00 0.00 47 1006.2
20260505074039 17 285 0.0 1.6 0.00 0.00 0.00 48 1006.3
20260505073618 17 110 0.0 1.6 0.00 0.00 0.00 46 1006.1
20260505072530 17 235 0.0 1.6 0.00 0.00 0.00 45 1006.5
20260505072024 17 267 0.0 4.8 0.00 0.00 0.00 46 1006.5
20260505071535 17 274 0.0 3.2 0.00 0.00 0.00 46 1006.6
20260505071030 17 287 0.0 3.2 0.00 0.00 0.00 46 1006.5
20260505070527 16 257 0.0 1.6 0.00 0.00 0.00 46 1006.5